Location: Litvinovka
(48.6667°N, 34.3500°E)
Time: 15:55:51
(UTC+00:00)

Cosmos 1674 - Pass Details

Date: 18 September 2020
Orbit: 494 x 517 km, 82.5° (Epoch: 22 October)

Event Time Altitude Azimuth Distance (km) Brightness Sun altitude
Rises 17:27:53 0° 354° (N) 2,653 6.7 -16.8°
Reaches altitude 10° 17:30:05 10° 359° (N) 1,761 5.7 -17.1°
Maximum altitude 17:33:52 53° 77° (ENE) 646 2.8 -17.7°
Enters shadow 17:34:40 44° 120° (ESE) 730 2.9 -17.8°
